This demonstration page uses our WeatherBlox Daily Observations layout. Learn more.

Left ArrowRight Arrow

Hourly Observations for June 22, 2020

Temp ( °F °C ) Dew Point ( °F °C ) Humidity (%) Winds ( mph kmh ) Pressure ( in mb ) Visibility ( mi km ) Precip ( " mm )
12:53 am 00:53 Clear 85 29.4 57 13.9 39 39 SSE 16 26 29.67 1005 10 16 0.00 0.00
1:53 am 01:53 Clear 84 28.9 57 13.9 40 40 SSE 16 26 29.67 1005 10 16 0.00 0.00
2:53 am 02:53 Clear 82 27.8 57 13.9 42 42 SSE 17 28 29.66 1004 10 16 0.00 0.00
3:53 am 03:53 Clear 79 26.1 59 15 50 50 SSE 14 22 29.65 1004 10 16 0.00 0.00
4:53 am 04:53 Clear 77 25 59 15 54 54 SSE 13 20 29.65 1004 10 16 0.00 0.00
5:53 am 05:53 Clear 75 23.9 59 15 58 58 SSE 10 17 29.65 1004 10 16 0.00 0.00
6:53 am 06:53 Sunny 72 22.2 59 15 64 64 SE 9 15 29.67 1005 10 16 0.00 0.00
7:53 am 07:53 Sunny 74 23.3 60 15.6 62 62 SE 8 13 29.70 1006 10 16 0.00 0.00
8:53 am 08:53 Sunny 81 27.2 59 15 47 47 SSE 8 13 29.71 1006 10 16 0.00 0.00
9:53 am 09:53 Sunny 89 31.7 41 5 19 19 SW 9 15 29.71 1006 10 16 0.00 0.00
10:53 am 10:53 Sunny 96 35.6 35 1.7 12 12 W 9 15 29.70 1006 10 16 0.00 0.00
11:53 am 11:53 Sunny 99 37.2 35 1.7 11 11 VRB 3 6 29.70 1006 10 16 0.00 0.00
12:53 pm 12:53 Sunny 102 38.9 38 3.3 11 11 NW 13 20 29.69 1006 10 16 0.00 0.00
1:53 pm 13:53 Sunny 104 40 48 8.9 15 15 W 13 20 29.68 1005 10 16 0.00 0.00
2:53 pm 14:53 Sunny 105 40.6 47 8.3 14 14 NW 13 20 29.67 1005 10 16 0.00 0.00
3:53 pm 15:53 Sunny 108 42.2 44 6.7 12 12 W 8 13 29.65 1004 10 16 0.00 0.00
4:53 pm 16:53 Sunny 108 42.2 33 0.6 7 7 W 16 26 29.62 1003 10 16 0.00 0.00
5:53 pm 17:53 Sunny 108 42.2 36 2.2 8 8 W 13 20 29.61 1003 10 16 0.00 0.00
6:53 pm 18:53 Sunny 105 40.6 33 0.6 8 8 WSW 10 17 29.62 1003 10 16 0.00 0.00
7:41 pm 19:41 Partly Cloudy 103 39.4 35 1.7 9 9 E 12 19 29.51 999 10 16 0.00 0.00
7:53 pm 19:53 Mostly Sunny 102 38.9 35 1.7 10 10 ESE 12 19 29.63 1004 10 16 0.00 0.00
8:18 pm 20:18 Sunny 100 37.8 40 4.4 13 13 NNW 12 19 29.53 1000 10 16 0.00 0.00
8:53 pm 20:53 Sunny 98 36.7 42 5.6 15 15 N 25 41 29.66 1004 10 16 0.00 0.00
9:53 pm 21:53 Clear 93 33.9 45 7.2 19 19 N 16 26 29.64 1004 10 16 0.00 0.00
10:53 pm 22:53 Clear 94 34.4 41 5 16 16 NE 9 15 29.60 1003 10 16 0.00 0.00
11:53 pm 23:53 Clear 90 32.2 48 8.9 24 24 ESE 23 37 29.67 1005 10 16 0.00 0.00

Powered by AerisWeather